2017-008AE

Last updated on Thu Mar 02 2017 00:15:03 GMT+0000 (Coordinated Universal Time)

1 41976U 17008AE 17060.01510442 .00003320 00000-0 15018-3 0 9990 2 41976 97.5100 121.6201 0007942 204.0180 156.0725 15.21600394 1256
UTC large
Height (km)
Speed (km/s)
/
Latitude / Longitude
Inclination (degrees)
Orbital Period (minutes)
Azimuth
Elevation
Range (km)
Doppler Factor

Next 0 passes for location: London (51.5072 / 0.1276)

Sorry there are no passes over London.